Location: Bacharowice
(49.9333°N, 19.5833°E)
Time: 09:06:54
(UTC+00:00)

USA 308 - Pass Details

Date: 11 May 2021
Orbit: 568 x 576 km, 54.0° (Epoch: 10 May)

Event Time Altitude Azimuth Distance (km) Brightness Sun altitude
Rises 19:42:59 0° 294° (WNW) 2,785 7.8 -11.8°
Reaches altitude 10° 19:45:14 10° 294° (WNW) 1,886 6.7 -12.0°
Maximum altitude 19:49:32 85° 206° (SSW) 583 2.9 -12.5°
Enters shadow 19:52:38 18° 119° (ESE) 1,419 4.3 -12.8°
